Mills, WY

7:55 AM MDT on August 29, 2016 (GMT -0600)
Natrona County International

Weather History for KCPR - February, 2014

Change the Weather History Date:

Tuesday, February 18, 2014

  Actual Average Record
Temperature  
Mean Temperature 36 °F 27 °F  
Max Temperature 44 °F 38 °F 64 °F (1958)
Min Temperature 28 °F 16 °F -31 °F (2006)
Degree Days  
Heating Degree Days 29 38  
Month to date heating degree days 838 708  
Since 1 July heating degree days 5320 5085  
Cooling Degree Days 0 0  
Month to date cooling degree days 0 0  
Year to date cooling degree days 0 0  
Moisture  
Dew Point 20 °F    
Average Humidity 57    
Maximum Humidity 78    
Minimum Humidity 36    
Precipitation  
Precipitation 0.00 in 0.02 in 0.26 in (1973)
Month to date precipitation 0.20 0.35  
Year to date precipitation 0.94 0.86  
Snow  
Snow 0.00 in 0.40 in - ()
Month to date snowfall 3.0 6.3  
Since 1 July snowfall 57.7 45.9  
Snow Depth 0.00 in    
Sea Level Pressure  
Sea Level Pressure 29.86 in    
Wind  
Wind Speed 12 mph (West)    
Max Wind Speed 24 mph    
Max Gust Speed 32 mph    
Visibility 10 miles    
Events      
T = Trace of Precipitation, MM = Missing Value Source: NWS Daily Summary

Daily Weather History Graph

Daily Weather History Graph

Search for Another Location

Airport or City:

Trip Planner

Search our weather history database for the weather conditions in past years. The results will help you decide how hot, cold, wet, or windy it might be!

Date:

Astronomy

Feb. 18, 2014 Rise Set
Actual Time 6:58 AM MST 5:41 PM MST
Civil Twilight 6:29 AM MST 6:10 PM MST
Nautical Twilight 5:56 AM MST 6:43 PM MST
Astronomical Twilight 5:24 AM MST 7:16 PM MST
Moon 9:44 PM MST (2/18) 8:26 AM MST (2/18)
Length of Visible Light 11h 40m
Length of Day
10h 42m
Waning Gibbous, 87% of the Moon is Illuminated
Feb 18
Waning Gibbous
Feb 22
Last Quarter
Mar 1
New
Mar 8
First Quarter
Mar 16
Full

Hourly Weather History & Observations

Time (MST) Temp. Windchill Dew Point Humidity Pressure Visibility Wind Dir Wind Speed Gust Speed Precip Events Conditions
12:53 AM 36.0 °F 30.3 °F 18.0 °F 48% 29.71 in 10.0 mi WNW 6.9 mph - N/A   Clear
1:53 AM 34.0 °F 24.6 °F 18.0 °F 52% 29.70 in 10.0 mi WSW 13.8 mph 19.6 mph N/A   Clear
2:53 AM 30.0 °F 22.4 °F 17.1 °F 59% 29.72 in 10.0 mi WSW 8.1 mph - N/A   Clear
3:53 AM 30.9 °F 21.7 °F 18.0 °F 59% 29.68 in 10.0 mi WNW 11.5 mph - N/A   Clear
4:53 AM 36.0 °F 24.4 °F 16.0 °F 44% 29.67 in 10.0 mi WSW 23.0 mph - N/A   Clear
5:53 AM 34.0 °F 21.8 °F 15.1 °F 46% 29.70 in 10.0 mi WSW 23.0 mph - N/A   Clear
6:53 AM 32.0 °F 22.5 °F 16.0 °F 52% 29.78 in 10.0 mi West 12.7 mph - N/A   Clear
7:53 AM 30.0 °F 24.1 °F 25.0 °F 82% 29.91 in 10.0 mi NNE 5.8 mph - N/A   Mostly Cloudy
8:53 AM 30.9 °F 22.8 °F 25.0 °F 79% 29.93 in 10.0 mi SE 9.2 mph - N/A   Scattered Clouds
9:53 AM 35.1 °F - 25.0 °F 67% 29.94 in 10.0 mi Calm Calm - N/A   Partly Cloudy
10:53 AM 39.0 °F 31.0 °F 21.9 °F 50% 29.95 in 10.0 mi WNW 13.8 mph 19.6 mph N/A   Clear
11:53 AM 41.0 °F 35.2 °F 21.9 °F 47% 29.93 in 10.0 mi WNW 9.2 mph - N/A   Mostly Cloudy
12:53 PM 42.1 °F 33.3 °F 21.0 °F 43% 29.94 in 10.0 mi WNW 19.6 mph - N/A   Clear
1:53 PM 43.0 °F 36.0 °F 21.0 °F 42% 29.94 in 10.0 mi West 13.8 mph 21.9 mph N/A   Clear
2:53 PM 43.0 °F 38.2 °F 21.0 °F 42% 29.96 in 10.0 mi NW 8.1 mph 18.4 mph N/A   Partly Cloudy
3:53 PM 43.0 °F 36.8 °F 18.0 °F 37% 29.96 in 10.0 mi WNW 11.5 mph - N/A   Clear
4:53 PM 41.0 °F 34.7 °F 19.0 °F 41% 29.94 in 10.0 mi WNW 10.4 mph - N/A   Clear
5:53 PM 35.1 °F 30.1 °F 18.0 °F 50% 29.97 in 10.0 mi SW 5.8 mph - N/A   Clear
6:53 PM 34.0 °F 25.5 °F 19.9 °F 56% 29.99 in 10.0 mi WSW 11.5 mph - N/A   Clear
7:53 PM 35.1 °F 26.9 °F 19.9 °F 54% 29.95 in 10.0 mi SSW 11.5 mph - N/A   Clear
8:53 PM 35.1 °F 25.9 °F 19.9 °F 54% 29.92 in 10.0 mi SW 13.8 mph - N/A   Clear
9:53 PM 35.1 °F 25.9 °F 19.0 °F 52% 29.89 in 10.0 mi SW 13.8 mph - N/A   Clear
10:53 PM 34.0 °F 22.7 °F 19.0 °F 54% 29.84 in 10.0 mi SW 19.6 mph - N/A   Clear
11:53 PM 34.0 °F 22.7 °F 19.0 °F 54% 29.81 in 10.0 mi SW 19.6 mph - N/A   Clear